Home   Weather   Viana do Castelo   Past weeks

Flag for Portugal Past Weather in Viana do Castelo, Portugal — Yesterday and Last 2 Weeks

Now
37 °F

Chilly.


Feels Like: 37 °F
Forecast: 38 / 54 °F
Wind: 1 mph from Southeast

Location: Porto / Pedras Rubras

Current Time: Jan 23, 2017 at 8:40:06 am

Latest Report: Jan 23, 2017 at 7:00 am


Visibility: N/A

Pressure: 30.24 "Hg

Humidity: 71%

Dew Point: 28 °F

Location of Viana do CasteloLocation

Past Weather in Viana do Castelo — Graph

°F

Viana do Castelo Temperature Yesterday

Maximum temperature yesterday: 56 °F (at 3:00 pm)
Minimum temperature yesterday: 35 °F (at 7:00 am)
Average temperature yesterday: 43 °F

High & Low Weather Summary for the Past Weeks

 TemperatureHumidityPressure
High63 °F (Jan 11, 1:00 pm)94% (Jan 12, 2:00 am)30.55 "Hg (Jan 12, 2:00 am)
Low30 °F (Jan 20, 3:00 am)19% (Jan 18, 2:00 pm)30.06 "Hg (Jan 20, 2:00 pm)
Average47 °F66%30.30 "Hg
* Reported Jan 8 7:00 am — Jan 23 7:00 am, Viana do Castelo, Weather by CustomWeather, © 2017

Note: Actual official high and low records may vary slightly from our data, if they occured in-between our weather recording intervals... More about our weather records

Advertising

Viana do Castelo Weather History for the Previous 24 Hours

Scroll right to see more
 ConditionsComfort  
Time TempWeatherWind HumidityBarometerVisibility
7:00 am
Mon, Jan 23
37 °FChilly.1 mph71%30.24 "HgN/A
6:00 am37 °FChilly.3 mph70%30.22 "HgN/A
5:00 am37 °FChilly.1 mph71%30.21 "HgN/A
4:00 am36 °FChilly.2 mph72%30.20 "HgN/A
3:00 am38 °FChilly.3 mph71%30.20 "HgN/A
2:00 am38 °FChilly.3 mph75%30.20 "HgN/A
1:00 am39 °FChilly.1 mph77%30.20 "HgN/A
12:00 am41 °FQuite cool.2 mph70%30.20 "HgN/A
11:00 pm
Sun, Jan 22
43 °FQuite cool.2 mph68%30.20 "HgN/A
10:00 pm43 °FQuite cool.2 mph68%30.18 "HgN/A
9:00 pm40 °FQuite cool.3 mph74%30.17 "HgN/A
8:00 pm44 °FQuite cool.5 mph69%30.17 "HgN/A
7:00 pm44 °FQuite cool.3 mph72%30.16 "HgN/A
6:00 pm46 °FCool.3 mph70%30.14 "HgN/A
5:00 pm52 °FCool.6 mph58%30.13 "HgN/A
4:00 pm55 °FRefreshingly cool.6 mph52%30.13 "HgN/A
3:00 pm56 °FRefreshingly cool.6 mph52%30.13 "HgN/A
2:00 pm53 °FCool.6 mph57%30.14 "HgN/A
1:00 pm53 °FCool.2 mph50%30.16 "HgN/A
12:00 pm52 °FCool.3 mph55%30.19 "HgN/A
11:00 am47 °FCool.2 mph65%30.20 "HgN/A
10:00 am41 °FQuite cool.3 mph75%30.20 "HgN/A
9:00 am37 °FChilly.3 mph81%30.19 "HgN/A
8:00 am36 °FChilly.3 mph83%30.18 "HgN/A
Weather by CustomWeather, © 2017

See weather overviewHow to use our weather pages